{"data":{"norad_id":61257,"epoch":"2026-05-25T04:14:41.301024Z","epoch_age_seconds":66724,"freshness":"FRESH","line1":"1 61257U 24175Q   26145.17686691 -.00001437  00000+0 -36407-4 0  9992","line2":"2 61257  53.1596 198.8005 0000927  98.3688 261.7418 15.30196393 93161","mean_motion":15.30196393,"eccentricity":9.27e-5,"inclination_deg":53.1596,"raan_deg":198.8005,"arg_perigee_deg":98.3688,"mean_anomaly_deg":261.7418,"bstar":-3.6407e-5,"rev_number":9316,"period_min":94.10556753286,"perigee_km":474.59053255711,"apogee_km":475.86114602752,"semimajor_km":6853.3628392923,"source":"CELESTRAK","updated_at":"2026-05-25T13:38:19.366684Z"}}